Погода в Лиможе

Франция     45°49′38″N   1°15′56″E
темп.,
°C
ветер,
м/с
пор.,
м/с
влажн.,
%
обл.,
%
осадки,
мм/ч
давл.,
гПа
погр.,
м
7 мая, пт
пт723:00+9юз3997100 0.6 1014616
02:00+9зюз3998100 2.0 1015727
05:00+9зюз2899100 0.7 1015568
08:00+9зсз2797100 1.0 1017548
11:00+10сз3482100 0.1 1019762
14:00+14сз2453100 0.1 10191444
17:00+16зсз334592 0.0 10171813
20:00+13сз2468100 0.0 1018128
8 мая, сб
сб823:00+10ю1186100 0.1 101911
02:00+8ююв229499 0.1 101823
05:00+7ююв229735 0.0 101739
08:00+9ююв279321 0.0 1017178
11:00+17ю3559100 0.0 1015716
14:00+22ю35495 0.0 10121337
17:00+24ююз464898 0.0 10101501
20:00+20ю227130 0.0 100820
9 мая, вс
вс923:00+16юв41576100 0.0 1008510
02:00+17ююв61761100 0.0 1006597
05:00+15ююв7186682 0.0 1005675
08:00+15ююв7186710 0.0 1005728
11:00+19ююв816575 0.0 1004871
14:00+19ю6145896 0.0 10051711
17:00+13юв41097100 5.7 1004432
20:00+15ююв81677100 5.7 1001948
10 мая, пн
пн1023:00+12зюз3698100 4.7 1004479
02:00+11ю2599100 28.6 1004258
05:00+9зюз3996100 8.1 1008402
08:00+9ююв259737 8.3 1010206
11:00+14юз246610 0.0 1010994
14:00+18юз364787 0.1 10072230
17:00+16юз4665100 0.1 1007437
20:00+13ссв1390100 0.9 1007133
11 мая, вт
вт1123:00+9юз2396100 0.9 100946
02:00+9ю2295100 1.3 100739
05:00+9ююз1196100 0.1 100718
08:00+9ю2697100 0.1 1008439
11:00+10ююз2597100 0.4 1009554
14:00+7зсз3998100 4.4 1012512
17:00+12зсз4879100 1.0 10121310
20:00+10зсз398211 2.1 1014791